Date String (YYYY-MM-DD hh:mm:ss) UTC,Instrument flags,absolute air pressure of the measurement (hPa),sample flow rate (lpm),inlet stack bypass flow (lpm),air temperature of the measurement (°C),ambient temperature measured by the external sensor (°C),aerosol sample conditioner tube jacket temperature (°C),OPC LED temperature (°C),internal box temperature (°C),relative humidity of the measurement (%),span deviation,mass concentration of particles derived from Lorenz-Mie calculation of OPC scattering (μg/m³),mass concentration of particles derived from Lorenz-Mie calculation of OPC scattering (μg/m³),mass concentration of particles derived from Lorenz-Mie calculation of OPC scattering (μg/m³)
DateTimeUTC,F1_M11,P_M11,Q1_M11,Q2_M11,T1_M11,T2_M11,T3_M11,T4_M11,T5_M11,U1_M11,ZSPAN_M11,X0_M11,X2_M11,X1_M11
2024-04-10 05:00:00,SystemResetWarning,0828.4,5.00,000.00,025.8,024.9,000.0,034.3,027.5,010.3,0000.0,0008.34,0003.53,0001.58
2024-04-10 05:01:00,SystemResetWarning,0828.4,5.00,000.00,025.8,024.8,000.0,034.3,027.5,010.3,0000.0,0008.61,0003.58,0001.60
2024-04-10 05:02:00,SystemResetWarning,0828.4,4.99,000.00,025.8,024.8,000.0,034.3,027.5,010.2,0000.0,0008.84,0003.58,0001.61
2024-04-10 05:03:00,SystemResetWarning,0828.4,5.00,000.00,025.7,024.8,000.0,034.3,027.4,010.3,0000.0,0008.98,0003.58,0001.62
2024-04-10 05:04:00,SystemResetWarning,0828.4,5.01,000.00,025.7,024.8,000.0,034.3,027.4,010.4,0000.0,0008.76,0003.45,0001.59
2024-04-10 05:05:00,SystemResetWarning,0828.4,5.00,000.00,025.7,024.7,000.0,034.3,027.4,010.5,0000.0,0008.60,0003.40,0001.57
2024-04-10 05:06:00,SystemResetWarning,0828.3,5.01,000.00,025.7,024.7,000.0,034.3,027.4,010.5,0000.0,0008.52,0003.38,0001.59
2024-04-10 05:07:00,SystemResetWarning,0828.3,5.00,000.00,025.7,024.7,000.0,034.2,027.4,010.4,0000.0,0008.31,0003.35,0001.58
2024-04-10 05:08:00,SystemResetWarning,0828.3,4.99,000.00,025.6,024.7,000.0,034.2,027.3,010.5,0000.0,0008.21,0003.33,0001.57
2024-04-10 05:09:00,SystemResetWarning,0828.3,4.99,000.00,025.6,024.6,000.0,034.2,027.3,010.5,0000.0,0008.06,0003.30,0001.56
2024-04-10 05:10:00,SystemResetWarning,0828.4,5.00,000.00,025.6,024.6,000.0,034.2,027.3,010.5,0000.0,0008.08,0003.25,0001.56
2024-04-10 05:11:00,SystemResetWarning,0828.3,5.01,000.00,025.6,024.6,000.0,034.2,027.3,010.5,0000.0,0008.00,0003.20,0001.56
2024-04-10 05:12:00,SystemResetWarning,0828.4,5.00,000.00,025.6,024.6,000.0,034.2,027.3,010.5,0000.0,0007.92,0003.18,0001.57
2024-04-10 05:13:00,SystemResetWarning,0828.4,5.00,000.00,025.6,024.6,000.0,034.1,027.3,010.5,0000.0,0007.70,0003.18,0001.59
2024-04-10 05:14:00,SystemResetWarning,0828.4,4.99,000.00,025.6,024.6,000.0,034.1,027.3,010.4,0000.0,0007.51,0003.16,0001.61
2024-04-10 05:15:00,SystemResetWarning,0828.3,5.00,000.00,025.5,024.6,000.0,034.1,027.3,010.5,0000.0,0007.51,0003.24,0001.63
2024-04-10 05:16:00,SystemResetWarning,0828.3,4.99,000.00,025.5,024.6,000.0,034.1,027.3,010.4,0000.0,0007.67,0003.29,0001.63
2024-04-10 05:17:00,SystemResetWarning,0828.3,5.00,000.00,025.5,024.6,000.0,034.1,027.3,010.4,0000.0,0007.72,0003.30,0001.63
2024-04-10 05:18:00,SystemResetWarning,0828.4,5.01,000.00,025.5,024.6,000.0,034.1,027.3,010.4,0000.0,0007.75,0003.34,0001.63
2024-04-10 05:19:00,SystemResetWarning,0828.3,5.00,000.00,025.5,024.6,000.0,034.1,027.3,010.3,0000.0,0007.72,0003.34,0001.62
2024-04-10 05:20:00,SystemResetWarning,0828.3,5.00,000.00,025.5,024.6,000.0,034.1,027.3,010.4,0000.0,0008.03,0003.39,0001.61
2024-04-10 05:21:00,SystemResetWarning,0828.3,4.99,000.00,025.5,024.6,000.0,034.0,027.3,010.4,0000.0,0008.16,0003.43,0001.62
2024-04-10 05:22:00,SystemResetWarning,0828.2,4.99,000.00,025.5,024.6,000.0,034.0,027.3,010.4,0000.0,0008.14,0003.43,0001.63
2024-04-10 05:23:00,SystemResetWarning,0828.3,4.99,000.00,025.5,024.6,000.0,034.0,027.3,010.3,0000.0,0008.02,0003.44,0001.62
2024-04-10 05:24:00,SystemResetWarning,0828.3,5.01,000.00,025.5,024.6,000.0,034.0,027.2,010.2,0000.0,0008.12,0003.49,0001.61
2024-04-10 05:25:00,SystemResetWarning,0828.3,5.01,000.00,025.5,024.6,000.0,034.0,027.2,010.2,0000.0,0008.10,0003.48,0001.59
2024-04-10 05:26:00,SystemResetWarning,0828.2,5.01,000.00,025.5,024.6,000.0,034.0,027.2,010.1,0000.0,0008.17,0003.46,0001.58
2024-04-10 05:27:00,SystemResetWarning,0828.2,5.01,000.00,025.4,024.6,000.0,034.0,027.2,010.0,0000.0,0008.92,0003.50,0001.59
2024-04-10 05:28:00,SystemResetWarning,0828.2,5.00,000.00,025.4,024.6,000.0,034.0,027.2,010.1,0000.0,0009.42,0003.51,0001.59
2024-04-10 05:29:00,SystemResetWarning,0828.3,4.98,000.00,025.4,024.5,000.0,034.0,027.2,010.0,0000.0,0009.39,0003.49,0001.59
2024-04-10 05:30:00,SystemResetWarning,0828.3,5.01,000.00,025.4,024.5,000.0,033.9,027.1,010.2,0000.0,0009.52,0003.54,0001.60
2024-04-10 05:31:00,SystemResetWarning,0828.3,5.01,000.00,025.4,024.5,000.0,033.9,027.2,010.2,0000.0,0009.49,0003.57,0001.60
2024-04-10 05:32:00,SystemResetWarning,0828.3,5.01,000.00,025.4,024.5,000.0,033.9,027.2,010.1,0000.0,0009.47,0003.60,0001.61
2024-04-10 05:33:00,SystemResetWarning,0828.2,4.99,000.00,025.4,024.5,000.0,033.9,027.2,010.2,0000.0,0009.63,0003.61,0001.61
2024-04-10 05:34:00,SystemResetWarning,0828.2,4.99,000.00,025.4,024.5,000.0,033.9,027.2,010.2,0000.0,0009.75,0003.64,0001.61
2024-04-10 05:35:00,SystemResetWarning,0828.1,5.00,000.00,025.4,024.5,000.0,033.9,027.2,010.2,0000.0,0009.65,0003.60,0001.60
2024-04-10 05:36:00,SystemResetWarning,0828.1,5.00,000.00,025.4,024.5,000.0,033.9,027.2,010.3,0000.0,0009.74,0003.64,0001.60
2024-04-10 05:37:00,SystemResetWarning,0828.1,5.00,000.00,025.4,024.5,000.0,033.9,027.2,010.1,0000.0,0009.85,0003.70,0001.63
2024-04-10 05:38:00,SystemResetWarning,0828.1,5.00,000.00,025.4,024.5,000.0,033.9,027.1,010.2,0000.0,0009.37,0003.66,0001.63
2024-04-10 05:39:00,SystemResetWarning,0828.2,5.00,000.00,025.4,024.5,000.0,033.9,027.1,010.1,0000.0,0008.70,0003.70,0001.63
2024-04-10 05:40:00,SystemResetWarning,0828.2,5.00,000.00,025.3,024.5,000.0,033.9,027.1,010.2,0000.0,0008.81,0003.69,0001.62
2024-04-10 05:41:00,SystemResetWarning,0828.2,5.00,000.00,025.3,024.5,000.0,033.9,027.1,010.2,0000.0,0008.64,0003.59,0001.62
2024-04-10 05:42:00,SystemResetWarning,0828.2,4.98,000.00,025.3,024.4,000.0,033.8,027.0,010.1,0000.0,0008.47,0003.54,0001.62
2024-04-10 05:43:00,SystemResetWarning,0828.2,4.99,000.00,025.3,024.4,000.0,033.8,027.1,010.2,0000.0,0008.46,0003.53,0001.61
2024-04-10 05:44:00,SystemResetWarning,0828.2,4.99,000.00,025.3,024.4,000.0,033.8,027.1,010.2,0000.0,0008.42,0003.53,0001.62
2024-04-10 05:45:00,SystemResetWarning,0828.1,5.00,000.00,025.3,024.4,000.0,033.8,027.1,010.2,0000.0,0008.32,0003.51,0001.63
2024-04-10 05:46:00,SystemResetWarning,0828.1,5.01,000.00,025.3,024.5,000.0,033.8,027.1,010.2,0000.0,0008.78,0003.57,0001.63
2024-04-10 05:47:00,SystemResetWarning,0828.1,5.02,000.00,025.3,024.5,000.0,033.8,027.1,010.2,0000.0,0009.19,0003.55,0001.62
2024-04-10 05:48:00,SystemResetWarning,0828.0,5.00,000.00,025.3,024.5,000.0,033.8,027.1,010.2,0000.0,0009.26,0003.49,0001.60
2024-04-10 05:49:00,SystemResetWarning,0828.1,5.00,000.00,025.3,024.5,000.0,033.8,027.1,010.2,0000.0,0009.26,0003.48,0001.60
2024-04-10 05:50:00,SystemResetWarning,0828.1,4.99,000.00,025.3,024.4,000.0,033.8,027.0,009.9,0000.0,0009.32,0003.47,0001.60
2024-04-10 05:51:00,SystemResetWarning,0828.1,4.99,000.00,025.3,024.4,000.0,033.8,027.0,009.9,0000.0,0009.33,0003.50,0001.61
2024-04-10 05:52:00,SystemResetWarning,0828.1,5.00,000.00,025.3,024.4,000.0,033.8,027.0,010.0,0000.0,0009.37,0003.55,0001.63
2024-04-10 05:53:00,SystemResetWarning,0828.1,5.01,000.00,025.2,024.4,000.0,033.8,027.0,009.9,0000.0,0009.44,0003.57,0001.61
2024-04-10 05:54:00,SystemResetWarning,0828.1,5.00,000.00,025.2,024.4,000.0,033.7,027.0,009.9,0000.0,0009.40,0003.56,0001.59
2024-04-10 05:55:00,SystemResetWarning,0828.1,5.00,000.00,025.2,024.3,000.0,033.7,027.0,009.9,0000.0,0009.46,0003.59,0001.59
2024-04-10 05:56:00,SystemResetWarning,0828.2,5.00,000.00,025.2,024.3,000.0,033.7,027.0,009.8,0000.0,0009.32,0003.57,0001.58
2024-04-10 05:57:00,SystemResetWarning,0828.2,5.00,000.00,025.2,024.3,000.0,033.7,027.0,009.8,0000.0,0009.12,0003.48,0001.56
2024-04-10 05:58:00,SystemResetWarning,0828.2,4.99,000.00,025.2,024.3,000.0,033.7,027.0,009.9,0000.0,0009.44,0003.48,0001.56
2024-04-10 05:59:00,SystemResetWarning,0828.1,5.00,000.00,025.2,024.3,000.0,033.7,027.0,009.9,0000.0,0009.43,0003.50,0001.57
